Time,TemperatureF,DewpointF,PressureIn,WindDirection,WindDirectionDegrees,WindSpeedMPH,WindSpeedGustMPH,Humidity,HourlyPrecipIn,Conditions,Clouds,dailyrainin,SolarRadiationWatts/m^2,SoftwareType,DateUTC
2013-05-07 00:00:00,51.5,47.8,30.17,NNW,328,0.0,0.0,87,0.00,,,0.00,0.00,VWS V14.01,2013-05-07 04:00:00,
2013-05-07 00:01:00,51.5,47.8,30.17,NNW,328,0.0,0.0,87,0.00,,,0.00,,VWS V14.01,2013-05-07 04:01:00,
2013-05-07 00:06:00,51.3,47.6,30.17,NNW,328,0.0,0.0,87,0.00,,,0.00,,VWS V14.01,2013-05-07 04:06:00,
2013-05-07 00:11:00,51.2,47.5,30.17,NNW,328,0.0,0.0,87,0.00,,,0.00,,VWS V14.01,2013-05-07 04:11:00,
2013-05-07 00:15:00,51.2,47.8,30.17,NNW,328,0.0,0.0,88,0.00,,,0.00,0.00,VWS V14.01,2013-05-07 04:15:00,
2013-05-07 00:16:00,51.0,47.6,30.17,NNW,328,0.0,0.0,88,0.00,,,0.00,,VWS V14.01,2013-05-07 04:16:00,
2013-05-07 00:21:00,50.9,47.5,30.17,NNW,328,0.0,0.0,88,0.00,,,0.00,,VWS V14.01,2013-05-07 04:21:00,
2013-05-07 00:26:00,50.7,47.3,30.17,NNW,328,0.0,0.0,88,0.00,,,0.00,,VWS V14.01,2013-05-07 04:26:00,
2013-05-07 00:30:00,50.7,47.3,30.17,NNW,328,0.0,0.0,88,0.00,,,0.00,0.00,VWS V14.01,2013-05-07 04:30:00,
2013-05-07 00:31:00,50.6,47.2,30.17,NNW,328,0.0,0.0,88,0.00,,,0.00,,VWS V14.01,2013-05-07 04:31:00,
2013-05-07 00:36:00,50.4,47.0,30.17,NNW,328,0.0,0.0,88,0.00,,,0.00,,VWS V14.01,2013-05-07 04:36:00,
2013-05-07 00:41:00,50.3,46.9,30.17,NNW,328,0.0,0.0,88,0.00,,,0.00,,VWS V14.01,2013-05-07 04:41:00,
2013-05-07 00:45:00,50.1,46.7,30.16,NNW,328,0.0,0.0,88,0.00,,,0.00,0.00,VWS V14.01,2013-05-07 04:45:00,
2013-05-07 00:46:00,50.1,47.0,30.16,NNW,328,0.0,0.0,89,0.00,,,0.00,,VWS V14.01,2013-05-07 04:46:00,
2013-05-07 00:51:00,50.0,46.9,30.16,NNW,328,0.0,0.0,89,0.00,,,0.00,,VWS V14.01,2013-05-07 04:51:00,
2013-05-07 00:56:00,49.8,46.7,30.16,NNW,328,0.0,0.0,89,0.00,,,0.00,,VWS V14.01,2013-05-07 04:56:00,
2013-05-07 01:00:00,49.8,46.7,30.16,NNW,328,0.0,0.0,89,0.00,,,0.00,0.00,VWS V14.01,2013-05-07 05:00:00,
2013-05-07 01:01:00,49.8,46.7,30.16,NNW,328,0.0,0.0,89,0.00,,,0.00,,VWS V14.01,2013-05-07 05:01:00,
2013-05-07 01:06:00,49.7,46.6,30.16,NNW,328,0.0,0.0,89,0.00,,,0.00,,VWS V14.01,2013-05-07 05:06:00,
2013-05-07 01:11:00,49.5,46.4,30.16,NNW,328,0.0,0.0,89,0.00,,,0.00,,VWS V14.01,2013-05-07 05:11:00,
2013-05-07 01:15:00,49.5,46.7,30.16,NNW,328,0.0,0.0,90,0.00,,,0.00,0.00,VWS V14.01,2013-05-07 05:15:00,
2013-05-07 01:16:00,49.5,46.4,30.16,NNW,328,0.0,0.0,89,0.00,,,0.00,,VWS V14.01,2013-05-07 05:16:00,
2013-05-07 01:21:00,49.4,46.6,30.16,NNW,328,0.0,0.0,90,0.00,,,0.00,,VWS V14.01,2013-05-07 05:21:00,
2013-05-07 01:26:00,49.4,46.6,30.16,NNW,328,0.0,0.0,90,0.00,,,0.00,,VWS V14.01,2013-05-07 05:26:00,
2013-05-07 01:30:00,49.4,46.6,30.15,NNW,328,0.0,0.0,90,0.00,,,0.00,0.00,VWS V14.01,2013-05-07 05:30:00,
2013-05-07 01:31:00,49.4,46.6,30.15,NNW,328,0.0,0.0,90,0.00,,,0.00,,VWS V14.01,2013-05-07 05:31:00,
2013-05-07 01:35:00,49.3,46.5,30.15,NNW,328,0.0,0.0,90,0.00,,,0.00,,VWS V14.01,2013-05-07 05:35:00,
2013-05-07 01:40:00,49.1,46.3,30.15,NNW,328,0.0,0.0,90,0.00,,,0.00,,VWS V14.01,2013-05-07 05:40:00,
2013-05-07 01:45:00,49.0,46.2,30.15,NNW,328,0.0,0.0,90,0.00,,,0.00,,VWS V14.01,2013-05-07 05:45:00,
2013-05-07 01:50:00,49.0,46.5,30.15,NNW,328,0.0,0.0,91,0.00,,,0.00,,VWS V14.01,2013-05-07 05:50:00,
2013-05-07 01:55:00,48.8,46.3,30.15,NNW,328,0.0,0.0,91,0.00,,,0.00,,VWS V14.01,2013-05-07 05:55:00,
2013-05-07 02:00:00,48.7,46.2,30.15,NNW,328,0.0,0.0,91,0.00,,,0.00,,VWS V14.01,2013-05-07 06:00:00,
2013-05-07 02:05:00,48.7,46.2,30.15,NNW,328,0.0,0.0,91,0.00,,,0.00,,VWS V14.01,2013-05-07 06:05:00,
2013-05-07 02:10:00,48.5,46.0,30.15,NNW,328,0.0,0.0,91,0.00,,,0.00,,VWS V14.01,2013-05-07 06:10:00,
2013-05-07 02:15:00,48.4,45.9,30.14,NNW,328,0.0,0.0,91,0.00,,,0.00,,VWS V14.01,2013-05-07 06:15:00,
2013-05-07 02:20:00,48.4,45.9,30.14,NNW,328,0.0,0.0,91,0.00,,,0.00,,VWS V14.01,2013-05-07 06:20:00,
2013-05-07 02:25:00,48.2,45.7,30.14,NNW,328,0.0,0.0,91,0.00,,,0.00,,VWS V14.01,2013-05-07 06:25:00,
2013-05-07 02:30:00,48.2,45.7,30.14,NNW,328,0.0,0.0,91,0.00,,,0.00,,VWS V14.01,2013-05-07 06:30:00,
2013-05-07 02:35:00,48.1,45.6,30.14,NNW,328,0.0,0.0,91,0.00,,,0.00,,VWS V14.01,2013-05-07 06:35:00,
2013-05-07 02:40:00,47.9,45.4,30.14,NNW,328,0.0,0.0,91,0.00,,,0.00,,VWS V14.01,2013-05-07 06:40:00,
2013-05-07 02:45:00,47.9,45.4,30.14,NNW,328,0.0,0.0,91,0.00,,,0.00,,VWS V14.01,2013-05-07 06:45:00,
2013-05-07 02:50:00,47.8,45.3,30.14,NNW,328,0.0,0.0,91,0.00,,,0.00,,VWS V14.01,2013-05-07 06:50:00,
2013-05-07 02:55:00,47.8,45.3,30.14,NNW,328,0.0,0.0,91,0.00,,,0.00,,VWS V14.01,2013-05-07 06:55:00,
2013-05-07 03:00:00,47.6,45.1,30.14,NNW,328,0.0,0.0,91,0.00,,,0.00,,VWS V14.01,2013-05-07 07:00:00,
2013-05-07 03:05:00,47.6,45.1,30.14,NNW,328,0.0,0.0,91,0.00,,,0.00,,VWS V14.01,2013-05-07 07:05:00,
2013-05-07 03:10:00,47.5,45.0,30.14,NNW,328,0.0,0.0,91,0.00,,,0.00,,VWS V14.01,2013-05-07 07:10:00,
2013-05-07 03:15:00,47.3,44.8,30.14,NNW,328,0.0,0.0,91,0.00,,,0.00,,VWS V14.01,2013-05-07 07:15:00,
2013-05-07 03:20:00,47.2,44.7,30.14,NNW,328,0.0,0.0,91,0.00,,,0.00,,VWS V14.01,2013-05-07 07:20:00,
2013-05-07 03:25:00,47.0,44.5,30.14,NNW,328,0.0,0.0,91,0.00,,,0.00,,VWS V14.01,2013-05-07 07:25:00,
2013-05-07 03:30:00,46.9,44.4,30.14,NNW,328,0.0,0.0,91,0.00,,,0.00,,VWS V14.01,2013-05-07 07:30:00,
2013-05-07 03:35:00,46.9,44.4,30.14,NNW,328,0.0,0.0,91,0.00,,,0.00,,VWS V14.01,2013-05-07 07:35:00,
2013-05-07 03:40:00,46.7,44.2,30.14,NNW,328,0.0,0.0,91,0.00,,,0.00,,VWS V14.01,2013-05-07 07:40:00,
2013-05-07 03:45:00,46.7,44.2,30.14,NNW,328,0.0,0.0,91,0.00,,,0.00,,VWS V14.01,2013-05-07 07:45:00,
2013-05-07 03:50:00,46.6,44.4,30.14,NNW,328,0.0,0.0,92,0.00,,,0.00,,VWS V14.01,2013-05-07 07:50:00,
2013-05-07 03:55:00,46.4,44.2,30.14,NNW,328,0.0,0.0,92,0.00,,,0.00,,VWS V14.01,2013-05-07 07:55:00,
2013-05-07 04:00:00,46.4,44.2,30.13,NNW,328,0.0,0.0,92,0.00,,,0.00,,VWS V14.01,2013-05-07 08:00:00,
2013-05-07 04:05:00,46.3,44.1,30.13,NNW,328,0.0,0.0,92,0.00,,,0.00,,VWS V14.01,2013-05-07 08:05:00,
2013-05-07 04:10:00,46.3,44.1,30.13,NNW,328,0.0,0.0,92,0.00,,,0.00,,VWS V14.01,2013-05-07 08:10:00,
2013-05-07 04:15:00,46.1,43.9,30.13,NNW,328,0.0,0.0,92,0.00,,,0.00,,VWS V14.01,2013-05-07 08:15:00,
2013-05-07 04:20:00,46.1,43.9,30.13,NNW,328,0.0,0.0,92,0.00,,,0.00,,VWS V14.01,2013-05-07 08:20:00,
2013-05-07 04:25:00,46.0,43.8,30.13,NNW,328,0.0,0.0,92,0.00,,,0.00,,VWS V14.01,2013-05-07 08:25:00,
2013-05-07 04:30:00,46.0,43.8,30.13,NNW,328,0.0,0.0,92,0.00,,,0.00,,VWS V14.01,2013-05-07 08:30:00,
2013-05-07 04:35:00,45.9,43.7,30.13,NNW,328,0.0,0.0,92,0.00,,,0.00,,VWS V14.01,2013-05-07 08:35:00,
2013-05-07 04:40:00,45.9,43.7,30.13,NNW,328,0.0,0.0,92,0.00,,,0.00,,VWS V14.01,2013-05-07 08:40:00,
2013-05-07 04:45:00,45.7,43.5,30.13,NNW,328,0.0,0.0,92,0.00,,,0.00,,VWS V14.01,2013-05-07 08:45:00,
2013-05-07 04:50:00,45.7,43.5,30.13,NNW,328,0.0,0.0,92,0.00,,,0.00,,VWS V14.01,2013-05-07 08:50:00,
2013-05-07 04:55:00,45.6,43.4,30.13,NNW,328,0.0,0.0,92,0.00,,,0.00,,VWS V14.01,2013-05-07 08:55:00,
2013-05-07 05:00:00,45.6,43.4,30.13,NNW,328,0.0,0.0,92,0.00,,,0.00,,VWS V14.01,2013-05-07 09:00:00,
2013-05-07 05:05:00,45.4,43.2,30.13,NNW,328,0.0,0.0,92,0.00,,,0.00,,VWS V14.01,2013-05-07 09:05:00,
2013-05-07 05:10:00,45.4,43.2,30.13,NNW,328,0.0,0.0,92,0.00,,,0.00,,VWS V14.01,2013-05-07 09:10:00,
2013-05-07 05:15:00,45.4,43.5,30.13,NNW,328,0.0,0.0,93,0.00,,,0.00,,VWS V14.01,2013-05-07 09:15:00,
2013-05-07 05:20:00,45.4,43.5,30.13,NNW,328,0.0,0.0,93,0.00,,,0.00,,VWS V14.01,2013-05-07 09:20:00,
2013-05-07 05:25:00,45.4,43.5,30.13,NNW,328,0.0,0.0,93,0.00,,,0.00,,VWS V14.01,2013-05-07 09:25:00,
2013-05-07 05:30:00,45.4,43.5,30.13,NNW,328,0.0,0.0,93,0.00,,,0.00,,VWS V14.01,2013-05-07 09:30:00,
2013-05-07 05:35:00,45.4,43.5,30.13,NNW,328,0.0,0.0,93,0.00,,,0.00,,VWS V14.01,2013-05-07 09:35:00,
2013-05-07 05:40:00,45.1,42.9,30.13,NNW,328,0.0,0.0,92,0.00,,,0.00,,VWS V14.01,2013-05-07 09:40:00,
2013-05-07 05:45:00,44.8,42.6,30.13,NNW,328,0.0,0.0,92,0.00,,,0.00,,VWS V14.01,2013-05-07 09:45:00,
2013-05-07 05:50:00,44.5,42.3,30.13,NNW,328,0.0,0.0,92,0.00,,,0.00,,VWS V14.01,2013-05-07 09:50:00,
2013-05-07 05:55:00,44.2,42.0,30.13,NNW,328,2.0,2.0,92,0.00,,,0.00,,VWS V14.01,2013-05-07 09:55:00,
2013-05-07 06:00:00,44.1,41.9,30.13,NNW,328,0.0,0.0,92,0.00,,,0.00,,VWS V14.01,2013-05-07 10:00:00,
2013-05-07 06:05:00,44.0,41.8,30.13,NNW,328,0.0,0.0,92,0.00,,,0.00,,VWS V14.01,2013-05-07 10:05:00,
2013-05-07 06:10:00,44.0,41.8,30.13,NNW,328,0.0,0.0,92,0.00,,,0.00,,VWS V14.01,2013-05-07 10:10:00,
2013-05-07 06:15:00,44.0,41.8,30.13,NNW,328,0.0,0.0,92,0.00,,,0.00,,VWS V14.01,2013-05-07 10:15:00,
2013-05-07 06:20:00,44.0,42.1,30.13,NNW,328,0.0,0.0,93,0.00,,,0.00,,VWS V14.01,2013-05-07 10:20:00,
2013-05-07 06:25:00,44.1,42.2,30.13,NNW,328,0.0,0.0,93,0.00,,,0.00,,VWS V14.01,2013-05-07 10:25:00,
2013-05-07 06:30:00,44.1,42.2,30.13,NNW,328,0.0,0.0,93,0.00,,,0.00,,VWS V14.01,2013-05-07 10:30:00,
2013-05-07 06:35:00,44.2,42.3,30.13,NNW,328,0.0,0.0,93,0.00,,,0.00,,VWS V14.01,2013-05-07 10:35:00,
2013-05-07 06:40:00,44.7,43.1,30.13,NNW,328,0.0,0.0,94,0.00,,,0.00,,VWS V14.01,2013-05-07 10:40:00,
2013-05-07 06:45:00,45.0,43.4,30.13,NNW,328,0.0,0.0,94,0.00,,,0.00,,VWS V14.01,2013-05-07 10:45:00,
2013-05-07 06:50:00,45.0,43.7,30.13,NNW,328,0.0,0.0,95,0.00,,,0.00,,VWS V14.01,2013-05-07 10:50:00,
2013-05-07 06:55:00,45.6,44.2,30.13,NNW,328,0.0,0.0,95,0.00,,,0.00,,VWS V14.01,2013-05-07 10:55:00,
2013-05-07 07:00:00,45.9,44.5,30.14,NNW,328,0.0,0.0,95,0.00,,,0.00,,VWS V14.01,2013-05-07 11:00:00,
2013-05-07 07:05:00,46.1,44.8,30.14,NNW,328,0.0,0.0,95,0.00,,,0.00,,VWS V14.01,2013-05-07 11:05:00,
2013-05-07 07:10:00,46.4,45.0,30.14,NNW,328,0.0,0.0,95,0.00,,,0.00,,VWS V14.01,2013-05-07 11:10:00,
2013-05-07 07:15:00,46.9,45.5,30.14,NNW,328,0.0,0.0,95,0.00,,,0.00,,VWS V14.01,2013-05-07 11:15:00,
2013-05-07 07:20:00,47.3,45.9,30.14,NNW,328,0.0,0.0,95,0.00,,,0.00,,VWS V14.01,2013-05-07 11:20:00,
2013-05-07 07:25:00,47.9,46.5,30.14,NNW,328,0.0,0.0,95,0.00,,,0.00,,VWS V14.01,2013-05-07 11:25:00,
2013-05-07 07:30:00,48.8,47.4,30.14,NNW,328,0.0,0.0,95,0.00,,,0.00,,VWS V14.01,2013-05-07 11:30:00,
2013-05-07 07:35:00,49.5,47.6,30.14,NNW,328,0.0,0.0,93,0.00,,,0.00,,VWS V14.01,2013-05-07 11:35:00,
2013-05-07 07:40:00,49.8,47.3,30.14,NNW,328,0.0,0.0,91,0.00,,,0.00,,VWS V14.01,2013-05-07 11:40:00,
2013-05-07 07:45:00,50.0,46.9,30.14,NNW,328,0.0,0.0,89,0.00,,,0.00,,VWS V14.01,2013-05-07 11:45:00,
2013-05-07 07:50:00,50.4,47.3,30.14,NNW,328,0.0,0.0,89,0.00,,,0.00,,VWS V14.01,2013-05-07 11:50:00,
2013-05-07 07:55:00,51.2,47.8,30.14,NW,319,0.0,0.0,88,0.00,,,0.00,,VWS V14.01,2013-05-07 11:55:00,
2013-05-07 08:00:00,51.5,47.8,30.15,NW,312,0.0,0.0,87,0.00,,,0.00,,VWS V14.01,2013-05-07 12:00:00,
2013-05-07 08:05:00,51.8,48.1,30.15,NW,312,0.0,1.0,87,0.00,,,0.00,,VWS V14.01,2013-05-07 12:05:00,
2013-05-07 08:10:00,52.8,48.4,30.15,NW,312,0.0,1.0,85,0.00,,,0.00,,VWS V14.01,2013-05-07 12:10:00,
2013-05-07 08:14:00,53.8,48.1,30.15,NW,312,0.0,0.0,81,0.00,,,0.00,,VWS V14.01,2013-05-07 12:14:00,
2013-05-07 08:15:00,53.8,48.1,30.15,NW,312,0.0,1.0,81,0.00,,,0.00,292.00,VWS V14.01,2013-05-07 12:15:00,
2013-05-07 08:19:00,54.9,48.9,30.15,NNW,331,0.0,0.0,80,0.00,,,0.00,,VWS V14.01,2013-05-07 12:19:00,
2013-05-07 08:24:00,55.5,48.4,30.15,NNW,335,0.0,1.0,77,0.00,,,0.00,,VWS V14.01,2013-05-07 12:24:00,
2013-05-07 08:29:00,55.3,48.2,30.15,NW,326,0.0,0.0,77,0.00,,,0.00,,VWS V14.01,2013-05-07 12:29:00,
2013-05-07 08:30:00,55.3,48.2,30.15,NW,326,0.0,1.0,77,0.00,,,0.00,330.00,VWS V14.01,2013-05-07 12:30:00,
2013-05-07 08:34:00,55.0,47.9,30.15,NW,324,0.0,1.0,77,0.00,,,0.00,,VWS V14.01,2013-05-07 12:34:00,
2013-05-07 08:39:00,55.5,48.4,30.15,NW,324,0.0,1.0,77,0.00,,,0.00,,VWS V14.01,2013-05-07 12:39:00,
2013-05-07 08:44:00,55.6,48.5,30.15,NW,323,0.0,0.0,77,0.00,,,0.00,,VWS V14.01,2013-05-07 12:44:00,
2013-05-07 08:45:00,55.6,48.5,30.15,NW,323,0.0,1.0,77,0.00,,,0.00,401.00,VWS V14.01,2013-05-07 12:45:00,
2013-05-07 08:49:00,55.9,48.5,30.15,WNW,291,4.0,4.0,76,0.00,,,0.00,,VWS V14.01,2013-05-07 12:49:00,
2013-05-07 08:54:00,56.4,48.6,30.15,WNW,284,0.0,5.0,75,0.00,,,0.00,,VWS V14.01,2013-05-07 12:54:00,
2013-05-07 08:59:00,57.5,48.2,30.15,WNW,284,0.0,0.0,71,0.00,,,0.00,,VWS V14.01,2013-05-07 12:59:00,
2013-05-07 09:00:00,57.5,48.6,30.15,WNW,284,0.0,5.0,72,0.00,,,0.00,480.00,VWS V14.01,2013-05-07 13:00:00,
2013-05-07 09:04:00,58.9,48.8,30.15,WNW,284,0.0,1.0,69,0.00,,,0.00,,VWS V14.01,2013-05-07 13:04:00,
2013-05-07 09:09:00,60.3,47.7,30.15,NNE,16,0.0,5.0,63,0.00,,,0.00,,VWS V14.01,2013-05-07 13:09:00,
2013-05-07 09:14:00,61.2,47.2,30.15,NNE,16,0.0,0.0,60,0.00,,,0.00,,VWS V14.01,2013-05-07 13:14:00,
2013-05-07 09:15:00,61.2,47.2,30.15,NNE,16,0.0,5.0,60,0.00,,,0.00,570.00,VWS V14.01,2013-05-07 13:15:00,
2013-05-07 09:19:00,62.0,47.1,30.15,NE,51,6.0,7.0,58,0.00,,,0.00,,VWS V14.01,2013-05-07 13:19:00,
2013-05-07 09:24:00,62.3,46.4,30.15,NE,34,2.0,8.0,56,0.00,,,0.00,,VWS V14.01,2013-05-07 13:24:00,
2013-05-07 09:29:00,63.4,47.0,30.15,NE,35,5.0,10.0,55,0.00,,,0.00,,VWS V14.01,2013-05-07 13:29:00,
2013-05-07 09:30:00,63.4,47.0,30.15,NE,35,5.0,10.0,55,0.00,,,0.00,610.00,VWS V14.01,2013-05-07 13:30:00,
2013-05-07 09:34:00,63.9,47.4,30.15,NE,48,6.0,10.0,55,0.00,,,0.00,,VWS V14.01,2013-05-07 13:34:00,
2013-05-07 09:39:00,64.1,46.1,30.15,NE,39,10.0,12.0,52,0.00,,,0.00,,VWS V14.01,2013-05-07 13:39:00,
2013-05-07 09:44:00,63.9,46.0,30.14,ENE,58,6.0,13.0,52,0.00,,,0.00,,VWS V14.01,2013-05-07 13:44:00,
2013-05-07 09:45:00,63.9,46.0,30.14,ENE,58,6.0,13.0,52,0.00,,,0.00,659.00,VWS V14.01,2013-05-07 13:45:00,
2013-05-07 09:49:00,64.6,46.6,30.14,ENE,75,3.0,12.0,52,0.00,,,0.00,,VWS V14.01,2013-05-07 13:49:00,
2013-05-07 09:54:00,64.9,45.8,30.14,NE,35,4.0,12.0,50,0.00,,,0.00,,VWS V14.01,2013-05-07 13:54:00,
2013-05-07 09:59:00,65.7,46.0,30.14,East,97,4.0,12.0,49,0.00,,,0.00,,VWS V14.01,2013-05-07 13:59:00,
2013-05-07 10:00:00,65.7,46.0,30.14,East,97,4.0,12.0,49,0.00,,,0.00,684.00,VWS V14.01,2013-05-07 14:00:00,
2013-05-07 10:04:00,65.7,46.6,30.14,NE,54,9.0,13.0,50,0.00,,,0.00,,VWS V14.01,2013-05-07 14:04:00,
2013-05-07 10:09:00,66.2,47.0,30.14,North,10,9.0,13.0,50,0.00,,,0.00,,VWS V14.01,2013-05-07 14:09:00,
2013-05-07 10:14:00,65.9,46.2,30.14,NE,51,8.0,13.0,49,0.00,,,0.00,,VWS V14.01,2013-05-07 14:14:00,
2013-05-07 10:15:00,65.9,46.2,30.14,NE,45,12.0,13.0,49,0.00,,,0.00,728.00,VWS V14.01,2013-05-07 14:15:00,
2013-05-07 10:19:00,66.5,46.8,30.14,ENE,70,7.0,13.0,49,0.00,,,0.00,,VWS V14.01,2013-05-07 14:19:00,
2013-05-07 10:24:00,66.2,46.5,30.14,NNE,22,7.0,13.0,49,0.00,,,0.00,,VWS V14.01,2013-05-07 14:24:00,
2013-05-07 10:29:00,67.2,48.0,30.14,NE,48,4.0,13.0,50,0.00,,,0.00,,VWS V14.01,2013-05-07 14:29:00,
2013-05-07 10:30:00,67.2,48.0,30.14,NE,47,6.0,13.0,50,0.00,,,0.00,770.00,VWS V14.01,2013-05-07 14:30:00,
2013-05-07 10:34:00,67.8,46.3,30.14,ENE,76,11.0,12.0,46,0.00,,,0.00,,VWS V14.01,2013-05-07 14:34:00,
2013-05-07 10:39:00,67.7,46.8,30.14,ENE,69,3.0,12.0,47,0.00,,,0.00,,VWS V14.01,2013-05-07 14:39:00,
2013-05-07 10:44:00,68.3,45.6,30.14,NE,35,6.0,12.0,44,0.00,,,0.00,,VWS V14.01,2013-05-07 14:44:00,
2013-05-07 10:45:00,68.3,45.6,30.14,NNE,32,8.0,12.0,44,0.00,,,0.00,809.00,VWS V14.01,2013-05-07 14:45:00,
2013-05-07 10:49:00,68.5,47.5,30.14,ENE,65,6.0,8.0,47,0.00,,,0.00,,VWS V14.01,2013-05-07 14:49:00,
2013-05-07 10:54:00,68.7,45.9,30.14,ENE,64,7.0,9.0,44,0.00,,,0.00,,VWS V14.01,2013-05-07 14:54:00,
2013-05-07 10:59:00,68.7,46.5,30.14,East,85,4.0,9.0,45,0.00,,,0.00,,VWS V14.01,2013-05-07 14:59:00,
2013-05-07 11:00:00,68.8,46.6,30.14,SSE,147,8.0,9.0,45,0.00,,,0.00,831.00,VWS V14.01,2013-05-07 15:00:00,
2013-05-07 11:04:00,68.7,46.5,30.14,ENE,67,7.0,11.0,45,0.00,,,0.00,,VWS V14.01,2013-05-07 15:04:00,
2013-05-07 11:09:00,69.2,47.0,30.14,ENE,60,3.0,11.0,45,0.00,,,0.00,,VWS V14.01,2013-05-07 15:09:00,
2013-05-07 11:14:00,69.8,48.1,30.14,South,180,5.0,11.0,46,0.00,,,0.00,,VWS V14.01,2013-05-07 15:14:00,
2013-05-07 11:15:00,69.8,48.1,30.14,SW,219,7.0,11.0,46,0.00,,,0.00,854.00,VWS V14.01,2013-05-07 15:15:00,
2013-05-07 11:19:00,69.3,47.1,30.14,ENE,72,8.0,12.0,45,0.00,,,0.00,,VWS V14.01,2013-05-07 15:19:00,
2013-05-07 11:24:00,69.3,47.7,30.14,NE,42,12.0,16.0,46,0.00,,,0.00,,VWS V14.01,2013-05-07 15:24:00,
2013-05-07 11:29:00,69.5,48.4,30.13,East,94,9.0,16.0,47,0.00,,,0.00,,VWS V14.01,2013-05-07 15:29:00,
2013-05-07 11:30:00,69.5,48.4,30.13,East,81,7.0,16.0,47,0.00,,,0.00,860.00,VWS V14.01,2013-05-07 15:30:00,
2013-05-07 11:34:00,69.5,49.5,30.13,ENE,59,9.0,16.0,49,0.00,,,0.00,,VWS V14.01,2013-05-07 15:34:00,
2013-05-07 11:39:00,70.5,48.2,30.13,SSE,150,4.0,16.0,45,0.00,,,0.00,,VWS V14.01,2013-05-07 15:39:00,
2013-05-07 11:44:00,70.2,48.5,30.13,East,82,0.0,16.0,46,0.00,,,0.00,,VWS V14.01,2013-05-07 15:44:00,
2013-05-07 11:45:00,70.2,48.5,30.13,East,82,0.0,16.0,46,0.00,,,0.00,879.00,VWS V14.01,2013-05-07 15:45:00,
2013-05-07 11:49:00,71.0,48.6,30.13,South,185,10.0,12.0,45,0.00,,,0.00,,VWS V14.01,2013-05-07 15:49:00,
2013-05-07 11:54:00,70.2,51.2,30.13,NE,35,8.0,14.0,51,0.00,,,0.00,,VWS V14.01,2013-05-07 15:54:00,
2013-05-07 11:59:00,70.0,51.6,30.12,ENE,75,9.0,16.0,52,0.00,,,0.00,,VWS V14.01,2013-05-07 15:59:00,
2013-05-07 12:00:00,70.0,51.6,30.12,ENE,72,9.0,16.0,52,0.00,,,0.00,926.00,VWS V14.01,2013-05-07 16:00:00,
2013-05-07 12:04:00,69.5,50.6,30.12,ENE,68,14.0,15.0,51,0.00,,,0.00,,VWS V14.01,2013-05-07 16:04:00,
2013-05-07 12:09:00,70.3,49.1,30.12,NE,53,4.0,16.0,47,0.00,,,0.00,,VWS V14.01,2013-05-07 16:09:00,
2013-05-07 12:14:00,71.9,49.4,30.13,SE,130,0.0,16.0,45,0.00,,,0.00,,VWS V14.01,2013-05-07 16:14:00,
2013-05-07 12:15:00,71.9,49.4,30.13,SE,130,0.0,16.0,45,0.00,,,0.00,1005.00,VWS V14.01,2013-05-07 16:15:00,
2013-05-07 12:19:00,72.2,50.9,30.13,NE,38,7.0,11.0,47,0.00,,,0.00,,VWS V14.01,2013-05-07 16:19:00,
2013-05-07 12:24:00,71.9,49.4,30.13,ENE,67,0.0,11.0,45,0.00,,,0.00,,VWS V14.01,2013-05-07 16:24:00,
2013-05-07 12:29:00,71.4,49.0,30.12,East,90,6.0,13.0,45,0.00,,,0.00,,VWS V14.01,2013-05-07 16:29:00,
2013-05-07 12:30:00,71.4,49.0,30.12,NNE,33,5.0,13.0,45,0.00,,,0.00,283.00,VWS V14.01,2013-05-07 16:30:00,
2013-05-07 12:34:00,71.5,50.2,30.12,South,171,6.0,14.0,47,0.00,,,0.00,,VWS V14.01,2013-05-07 16:34:00,
2013-05-07 12:39:00,72.6,49.5,30.12,SSW,212,1.0,14.0,44,0.00,,,0.00,,VWS V14.01,2013-05-07 16:39:00,
2013-05-07 12:44:00,72.4,49.9,30.11,NNE,31,7.0,15.0,45,0.00,,,0.00,,VWS V14.01,2013-05-07 16:44:00,
2013-05-07 12:45:00,72.4,49.9,30.11,East,81,9.0,15.0,45,0.00,,,0.00,886.00,VWS V14.01,2013-05-07 16:45:00,
2013-05-07 12:49:00,71.9,50.0,30.11,NNE,24,7.0,10.0,46,0.00,,,0.00,,VWS V14.01,2013-05-07 16:49:00,
2013-05-07 12:54:00,71.9,50.0,30.11,NE,38,2.0,14.0,46,0.00,,,0.00,,VWS V14.01,2013-05-07 16:54:00,
2013-05-07 12:59:00,71.5,50.2,30.11,NNE,30,8.0,14.0,47,0.00,,,0.00,,VWS V14.01,2013-05-07 16:59:00,
2013-05-07 13:00:00,71.5,50.2,30.11,NE,50,10.0,14.0,47,0.00,,,0.00,907.00,VWS V14.01,2013-05-07 17:00:00,
2013-05-07 13:04:00,72.0,49.5,30.11,ENE,60,9.0,13.0,45,0.00,,,0.00,,VWS V14.01,2013-05-07 17:04:00,
2013-05-07 13:09:00,71.4,49.6,30.11,North,5,5.0,14.0,46,0.00,,,0.00,,VWS V14.01,2013-05-07 17:09:00,
2013-05-07 13:14:00,72.9,50.9,30.11,ESE,102,2.0,14.0,46,0.00,,,0.00,,VWS V14.01,2013-05-07 17:14:00,
2013-05-07 13:15:00,72.7,50.2,30.11,ENE,77,9.0,14.0,45,0.00,,,0.00,905.00,VWS V14.01,2013-05-07 17:15:00,
2013-05-07 13:19:00,72.0,49.5,30.11,ENE,71,0.0,11.0,45,0.00,,,0.00,,VWS V14.01,2013-05-07 17:19:00,
2013-05-07 13:24:00,71.7,51.0,30.11,ENE,60,6.0,11.0,48,0.00,,,0.00,,VWS V14.01,2013-05-07 17:24:00,
2013-05-07 13:29:00,71.7,52.1,30.11,NE,46,8.0,11.0,50,0.00,,,0.00,,VWS V14.01,2013-05-07 17:29:00,
2013-05-07 13:30:00,72.0,52.4,30.11,NE,49,8.0,11.0,50,0.00,,,0.00,1056.00,VWS V14.01,2013-05-07 17:30:00,
2013-05-07 13:34:00,71.9,51.2,30.11,ENE,77,6.0,15.0,48,0.00,,,0.00,,VWS V14.01,2013-05-07 17:34:00,
2013-05-07 13:39:00,71.0,50.9,30.11,ENE,62,0.0,15.0,49,0.00,,,0.00,,VWS V14.01,2013-05-07 17:39:00,
2013-05-07 13:44:00,71.5,51.4,30.10,ESE,103,7.0,15.0,49,0.00,,,0.00,,VWS V14.01,2013-05-07 17:44:00,
2013-05-07 13:45:00,71.5,50.8,30.10,East,91,2.0,15.0,48,0.00,,,0.00,1023.00,VWS V14.01,2013-05-07 17:45:00,
2013-05-07 13:49:00,72.0,50.7,30.10,NE,55,0.0,9.0,47,0.00,,,0.00,,VWS V14.01,2013-05-07 17:49:00,
2013-05-07 13:54:00,72.0,51.3,30.10,East,81,6.0,9.0,48,0.00,,,0.00,,VWS V14.01,2013-05-07 17:54:00,
2013-05-07 13:59:00,72.7,50.2,30.10,SE,128,5.0,9.0,45,0.00,,,0.00,,VWS V14.01,2013-05-07 17:59:00,
2013-05-07 14:00:00,72.7,51.3,30.10,ESE,104,4.0,9.0,47,0.00,,,0.00,1137.00,VWS V14.01,2013-05-07 18:00:00,
2013-05-07 14:04:00,72.0,51.3,30.10,East,94,0.0,12.0,48,0.00,,,0.00,,VWS V14.01,2013-05-07 18:04:00,
2013-05-07 14:09:00,72.6,49.5,30.10,ESE,121,4.0,12.0,44,0.00,,,0.00,,VWS V14.01,2013-05-07 18:09:00,
2013-05-07 14:14:00,73.6,51.0,30.09,NE,54,4.0,12.0,45,0.00,,,0.00,,VWS V14.01,2013-05-07 18:14:00,
2013-05-07 14:15:00,73.4,51.4,30.09,SSE,153,6.0,12.0,46,0.00,,,0.00,348.00,VWS V14.01,2013-05-07 18:15:00,
2013-05-07 14:19:00,73.1,51.7,30.09,NE,47,8.0,12.0,47,0.00,,,0.00,,VWS V14.01,2013-05-07 18:19:00,
2013-05-07 14:24:00,72.9,51.5,30.09,ENE,61,0.0,12.0,47,0.00,,,0.00,,VWS V14.01,2013-05-07 18:24:00,
2013-05-07 14:29:00,73.4,54.2,30.09,NNE,19,7.0,12.0,51,0.00,,,0.00,,VWS V14.01,2013-05-07 18:29:00,
2013-05-07 14:30:00,73.2,54.0,30.09,SE,125,2.0,12.0,51,0.00,,,0.00,288.00,VWS V14.01,2013-05-07 18:30:00,
2013-05-07 14:34:00,71.9,51.7,30.09,East,79,9.0,14.0,49,0.00,,,0.00,,VWS V14.01,2013-05-07 18:34:00,
2013-05-07 14:39:00,71.5,53.5,30.09,ENE,71,6.0,14.0,53,0.00,,,0.00,,VWS V14.01,2013-05-07 18:39:00,
2013-05-07 14:44:00,71.9,52.3,30.09,ENE,61,9.0,14.0,50,0.00,,,0.00,,VWS V14.01,2013-05-07 18:44:00,
2013-05-07 14:45:00,71.9,52.3,30.09,NNE,32,5.0,14.0,50,0.00,,,0.00,322.00,VWS V14.01,2013-05-07 18:45:00,
2013-05-07 14:49:00,71.7,51.5,30.09,NE,46,0.0,13.0,49,0.00,,,0.00,,VWS V14.01,2013-05-07 18:49:00,
2013-05-07 14:54:00,72.9,52.1,30.09,NE,51,0.0,13.0,48,0.00,,,0.00,,VWS V14.01,2013-05-07 18:54:00,
2013-05-07 14:59:00,73.1,52.3,30.08,East,80,0.0,13.0,48,0.00,,,0.00,,VWS V14.01,2013-05-07 18:59:00,
2013-05-07 15:00:00,73.1,51.7,30.08,East,80,0.0,13.0,47,0.00,,,0.00,272.00,VWS V14.01,2013-05-07 19:00:00,
2013-05-07 15:04:00,72.6,52.9,30.08,NE,49,12.0,12.0,50,0.00,,,0.00,,VWS V14.01,2013-05-07 19:04:00,
2013-05-07 15:09:00,71.9,51.7,30.08,NE,53,1.0,13.0,49,0.00,,,0.00,,VWS V14.01,2013-05-07 19:09:00,
2013-05-07 15:14:00,71.9,51.2,30.08,ENE,65,4.0,16.0,48,0.00,,,0.00,,VWS V14.01,2013-05-07 19:14:00,
2013-05-07 15:15:00,71.7,51.0,30.08,ENE,61,4.0,16.0,48,0.00,,,0.00,325.00,VWS V14.01,2013-05-07 19:15:00,
2013-05-07 15:18:00,72.2,52.0,30.08,NE,42,4.0,11.0,49,0.00,,,0.00,,VWS V14.01,2013-05-07 19:18:00,
2013-05-07 15:23:00,72.2,52.5,30.08,SE,130,9.0,11.0,50,0.00,,,0.00,,VWS V14.01,2013-05-07 19:23:00,
2013-05-07 15:28:00,72.6,51.8,30.08,South,185,4.0,11.0,48,0.00,,,0.00,,VWS V14.01,2013-05-07 19:28:00,
2013-05-07 15:30:00,72.6,51.8,30.08,SSE,148,4.0,11.0,48,0.00,,,0.00,186.00,VWS V14.01,2013-05-07 19:30:00,
2013-05-07 15:33:00,72.0,51.8,30.08,East,80,7.0,9.0,49,0.00,,,0.00,,VWS V14.01,2013-05-07 19:33:00,
2013-05-07 15:38:00,72.0,51.3,30.08,SE,131,4.0,9.0,48,0.00,,,0.00,,VWS V14.01,2013-05-07 19:38:00,
2013-05-07 15:43:00,72.6,52.4,30.08,NNE,17,0.0,12.0,49,0.00,,,0.00,,VWS V14.01,2013-05-07 19:43:00,
2013-05-07 15:45:00,72.7,51.9,30.08,East,101,7.0,12.0,48,0.00,,,0.00,221.00,VWS V14.01,2013-05-07 19:45:00,
2013-05-07 15:48:00,72.2,52.5,30.08,NE,48,6.0,9.0,50,0.00,,,0.00,,VWS V14.01,2013-05-07 19:48:00,
2013-05-07 15:53:00,72.9,52.1,30.08,West,263,0.0,9.0,48,0.00,,,0.00,,VWS V14.01,2013-05-07 19:53:00,
2013-05-07 15:58:00,73.8,52.3,30.07,ENE,67,0.0,9.0,47,0.00,,,0.00,,VWS V14.01,2013-05-07 19:58:00,
2013-05-07 16:00:00,73.6,52.7,30.07,NE,55,3.0,9.0,48,0.00,,,0.00,234.00,VWS V14.01,2013-05-07 20:00:00,
2013-05-07 16:03:00,72.4,51.0,30.07,ESE,106,6.0,10.0,47,0.00,,,0.00,,VWS V14.01,2013-05-07 20:03:00,
2013-05-07 16:08:00,71.7,51.5,30.07,East,100,0.0,11.0,49,0.00,,,0.00,,VWS V14.01,2013-05-07 20:08:00,
2013-05-07 16:13:00,71.7,51.5,30.07,ENE,75,6.0,13.0,49,0.00,,,0.00,,VWS V14.01,2013-05-07 20:13:00,
2013-05-07 16:15:00,71.5,51.4,30.07,East,96,3.0,13.0,49,0.00,,,0.00,422.00,VWS V14.01,2013-05-07 20:15:00,
2013-05-07 16:18:00,71.4,51.8,30.07,East,83,1.0,7.0,50,0.00,,,0.00,,VWS V14.01,2013-05-07 20:18:00,
2013-05-07 16:23:00,73.6,51.6,30.07,NE,43,5.0,7.0,46,0.00,,,0.00,,VWS V14.01,2013-05-07 20:23:00,
2013-05-07 16:28:00,72.9,50.9,30.07,SE,126,3.0,13.0,46,0.00,,,0.00,,VWS V14.01,2013-05-07 20:28:00,
2013-05-07 16:30:00,72.7,50.8,30.07,ENE,61,11.0,13.0,46,0.00,,,0.00,271.00,VWS V14.01,2013-05-07 20:30:00,
2013-05-07 16:33:00,72.0,50.7,30.07,NNE,31,7.0,11.0,47,0.00,,,0.00,,VWS V14.01,2013-05-07 20:33:00,
2013-05-07 16:38:00,71.9,51.2,30.07,WNW,289,7.0,11.0,48,0.00,,,0.00,,VWS V14.01,2013-05-07 20:38:00,
2013-05-07 16:43:00,71.7,49.8,30.07,East,86,10.0,11.0,46,0.00,,,0.00,,VWS V14.01,2013-05-07 20:43:00,
2013-05-07 16:45:00,71.7,49.2,30.07,NE,42,7.0,11.0,45,0.00,,,0.00,643.00,VWS V14.01,2013-05-07 20:45:00,
2013-05-07 16:48:00,72.2,48.5,30.07,SE,135,6.0,11.0,43,0.00,,,0.00,,VWS V14.01,2013-05-07 20:48:00,
2013-05-07 16:53:00,73.1,49.9,30.07,West,272,0.0,11.0,44,0.00,,,0.00,,VWS V14.01,2013-05-07 20:53:00,
2013-05-07 16:58:00,72.9,49.1,30.07,SW,233,4.0,11.0,43,0.00,,,0.00,,VWS V14.01,2013-05-07 20:58:00,
2013-05-07 17:00:00,73.1,49.3,30.07,SW,225,0.0,11.0,43,0.00,,,0.00,462.00,VWS V14.01,2013-05-07 21:00:00,
2013-05-07 17:03:00,72.7,48.9,30.07,ENE,74,4.0,12.0,43,0.00,,,0.00,,VWS V14.01,2013-05-07 21:03:00,
2013-05-07 17:08:00,72.4,49.9,30.07,ENE,65,7.0,12.0,45,0.00,,,0.00,,VWS V14.01,2013-05-07 21:08:00,
2013-05-07 17:13:00,72.0,51.8,30.07,East,97,11.0,12.0,49,0.00,,,0.00,,VWS V14.01,2013-05-07 21:13:00,
2013-05-07 17:15:00,72.0,51.3,30.07,ESE,111,6.0,12.0,48,0.00,,,0.00,325.00,VWS V14.01,2013-05-07 21:15:00,
2013-05-07 17:18:00,71.7,51.0,30.07,East,96,5.0,12.0,48,0.00,,,0.00,,VWS V14.01,2013-05-07 21:18:00,
2013-05-07 17:23:00,71.5,51.9,30.07,NE,55,8.0,12.0,50,0.00,,,0.00,,VWS V14.01,2013-05-07 21:23:00,
2013-05-07 17:28:00,71.2,51.1,30.07,ENE,65,8.0,12.0,49,0.00,,,0.00,,VWS V14.01,2013-05-07 21:28:00,
2013-05-07 17:30:00,71.2,51.1,30.07,NE,52,0.0,12.0,49,0.00,,,0.00,251.00,VWS V14.01,2013-05-07 21:30:00,
2013-05-07 17:33:00,71.4,51.3,30.07,East,94,4.0,9.0,49,0.00,,,0.00,,VWS V14.01,2013-05-07 21:33:00,
2013-05-07 17:38:00,70.8,51.8,30.07,ENE,65,0.0,13.0,51,0.00,,,0.00,,VWS V14.01,2013-05-07 21:38:00,
2013-05-07 17:43:00,70.5,52.0,30.07,NE,37,6.0,13.0,52,0.00,,,0.00,,VWS V14.01,2013-05-07 21:43:00,
2013-05-07 17:45:00,70.5,52.6,30.07,ESE,114,7.0,13.0,53,0.00,,,0.00,318.00,VWS V14.01,2013-05-07 21:45:00,
2013-05-07 17:48:00,70.5,52.6,30.07,SE,128,6.0,9.0,53,0.00,,,0.00,,VWS V14.01,2013-05-07 21:48:00,
2013-05-07 17:53:00,70.5,53.1,30.07,WSW,244,2.0,9.0,54,0.00,,,0.00,,VWS V14.01,2013-05-07 21:53:00,
2013-05-07 17:58:00,70.3,53.4,30.07,East,80,6.0,9.0,55,0.00,,,0.00,,VWS V14.01,2013-05-07 21:58:00,
2013-05-07 18:00:00,70.3,53.4,30.07,East,80,6.0,10.0,55,0.00,,,0.00,190.00,VWS V14.01,2013-05-07 22:00:00,
2013-05-07 18:03:00,70.3,53.4,30.07,SSE,152,7.0,7.0,55,0.00,,,0.00,,VWS V14.01,2013-05-07 22:03:00,
2013-05-07 18:08:00,70.2,53.8,30.07,SE,126,6.0,13.0,56,0.00,,,0.00,,VWS V14.01,2013-05-07 22:08:00,
2013-05-07 18:13:00,70.0,53.1,30.07,ENE,64,6.0,13.0,55,0.00,,,0.00,,VWS V14.01,2013-05-07 22:13:00,
2013-05-07 18:15:00,69.8,52.9,30.08,ESE,102,6.0,13.0,55,0.00,,,0.00,171.00,VWS V14.01,2013-05-07 22:15:00,
2013-05-07 18:18:00,69.8,53.4,30.08,East,84,6.0,9.0,56,0.00,,,0.00,,VWS V14.01,2013-05-07 22:18:00,
2013-05-07 18:23:00,69.3,53.0,30.08,ESE,119,1.0,12.0,56,0.00,,,0.00,,VWS V14.01,2013-05-07 22:23:00,
2013-05-07 18:28:00,69.0,53.6,30.08,ENE,66,11.0,12.0,58,0.00,,,0.00,,VWS V14.01,2013-05-07 22:28:00,
2013-05-07 18:30:00,68.8,53.4,30.08,SE,125,6.0,12.0,58,0.00,,,0.00,130.00,VWS V14.01,2013-05-07 22:30:00,
2013-05-07 18:33:00,68.7,54.3,30.08,NE,55,4.0,10.0,60,0.00,,,0.00,,VWS V14.01,2013-05-07 22:33:00,
2013-05-07 18:38:00,68.5,53.6,30.08,ENE,58,8.0,10.0,59,0.00,,,0.00,,VWS V14.01,2013-05-07 22:38:00,
2013-05-07 18:43:00,68.3,53.9,30.08,SSE,166,6.0,12.0,60,0.00,,,0.00,,VWS V14.01,2013-05-07 22:43:00,
2013-05-07 18:45:00,68.3,53.9,30.08,NE,53,7.0,12.0,60,0.00,,,0.00,65.00,VWS V14.01,2013-05-07 22:45:00,
2013-05-07 18:48:00,68.0,53.6,30.08,SE,128,6.0,8.0,60,0.00,,,0.00,,VWS V14.01,2013-05-07 22:48:00,
2013-05-07 18:53:00,67.8,53.4,30.08,East,94,4.0,8.0,60,0.00,,,0.00,,VWS V14.01,2013-05-07 22:53:00,
2013-05-07 18:58:00,67.7,53.8,30.08,ENE,71,0.0,9.0,61,0.00,,,0.00,,VWS V14.01,2013-05-07 22:58:00,
2013-05-07 19:00:00,67.7,53.8,30.08,ESE,106,1.0,9.0,61,0.00,,,0.00,54.00,VWS V14.01,2013-05-07 23:00:00,
2013-05-07 19:03:00,67.5,54.0,30.08,SE,130,4.0,8.0,62,0.00,,,0.00,,VWS V14.01,2013-05-07 23:03:00,
2013-05-07 19:08:00,67.5,54.0,30.08,SSE,166,0.0,8.0,62,0.00,,,0.00,,VWS V14.01,2013-05-07 23:08:00,
2013-05-07 19:13:00,67.3,54.3,30.08,ESE,113,0.0,8.0,63,0.00,,,0.00,,VWS V14.01,2013-05-07 23:13:00,
2013-05-07 19:15:00,67.3,54.3,30.08,SE,143,2.0,8.0,63,0.00,,,0.00,49.00,VWS V14.01,2013-05-07 23:15:00,
2013-05-07 19:18:00,67.2,54.2,30.08,ENE,75,6.0,8.0,63,0.00,,,0.00,,VWS V14.01,2013-05-07 23:18:00,
2013-05-07 19:23:00,67.0,54.0,30.08,SSE,157,0.0,8.0,63,0.00,,,0.00,,VWS V14.01,2013-05-07 23:23:00,
2013-05-07 19:28:00,66.8,53.8,30.08,East,86,0.0,8.0,63,0.00,,,0.00,,VWS V14.01,2013-05-07 23:28:00,
2013-05-07 19:30:00,66.8,53.8,30.08,ESE,109,0.0,8.0,63,0.00,,,0.00,23.00,VWS V14.01,2013-05-07 23:30:00,
2013-05-07 19:33:00,66.7,53.7,30.08,ESE,120,0.0,10.0,63,0.00,,,0.00,,VWS V14.01,2013-05-07 23:33:00,
2013-05-07 19:38:00,66.5,54.0,30.08,South,180,0.0,10.0,64,0.00,,,0.00,,VWS V14.01,2013-05-07 23:38:00,
2013-05-07 19:43:00,66.3,54.2,30.08,SE,126,0.0,10.0,65,0.00,,,0.00,,VWS V14.01,2013-05-07 23:43:00,
2013-05-07 19:45:00,66.3,54.2,30.09,ENE,76,0.0,10.0,65,0.00,,,0.00,7.00,VWS V14.01,2013-05-07 23:45:00,
2013-05-07 19:48:00,66.2,54.1,30.09,ENE,76,0.0,0.0,65,0.00,,,0.00,,VWS V14.01,2013-05-07 23:48:00,
2013-05-07 19:53:00,66.2,54.5,30.09,NNE,32,2.0,6.0,66,0.00,,,0.00,,VWS V14.01,2013-05-07 23:53:00,
2013-05-07 19:58:00,65.9,54.7,30.09,ENE,72,5.0,8.0,67,0.00,,,0.00,,VWS V14.01,2013-05-07 23:58:00,
2013-05-07 20:00:00,65.7,54.5,30.08,East,81,4.0,8.0,67,0.00,,,0.00,0.00,VWS V14.01,2013-05-08 00:00:00,
2013-05-07 20:03:00,65.7,54.5,30.08,ENE,64,4.0,7.0,67,0.00,,,0.00,,VWS V14.01,2013-05-08 00:03:00,
2013-05-07 20:08:00,65.5,54.7,30.08,East,88,0.0,7.0,68,0.00,,,0.00,,VWS V14.01,2013-05-08 00:08:00,
2013-05-07 20:13:00,65.4,54.6,30.08,East,96,1.0,7.0,68,0.00,,,0.00,,VWS V14.01,2013-05-08 00:13:00,
2013-05-07 20:15:00,65.4,54.6,30.09,East,96,0.0,7.0,68,0.00,,,0.00,0.00,VWS V14.01,2013-05-08 00:15:00,
2013-05-07 20:18:00,65.4,54.6,30.09,East,96,0.0,0.0,68,0.00,,,0.00,,VWS V14.01,2013-05-08 00:18:00,
2013-05-07 20:23:00,65.2,54.8,30.09,East,96,0.0,0.0,69,0.00,,,0.00,,VWS V14.01,2013-05-08 00:23:00,
2013-05-07 20:28:00,65.2,54.8,30.09,East,96,0.0,1.0,69,0.00,,,0.00,,VWS V14.01,2013-05-08 00:28:00,
2013-05-07 20:30:00,65.1,54.7,30.09,ESE,107,0.0,1.0,69,0.00,,,0.00,0.00,VWS V14.01,2013-05-08 00:30:00,
2013-05-07 20:33:00,65.1,55.1,30.09,East,95,2.0,5.0,70,0.00,,,0.00,,VWS V14.01,2013-05-08 00:33:00,
2013-05-07 20:38:00,64.9,54.9,30.09,East,95,0.0,5.0,70,0.00,,,0.00,,VWS V14.01,2013-05-08 00:38:00,
2013-05-07 20:43:00,64.7,55.1,30.09,East,95,0.0,5.0,71,0.00,,,0.00,,VWS V14.01,2013-05-08 00:43:00,
2013-05-07 20:45:00,64.7,55.1,30.09,East,95,0.0,5.0,71,0.00,,,0.00,0.00,VWS V14.01,2013-05-08 00:45:00,
2013-05-07 20:48:00,64.7,55.1,30.09,East,95,0.0,0.0,71,0.00,,,0.00,,VWS V14.01,2013-05-08 00:48:00,
2013-05-07 20:53:00,64.6,55.0,30.09,East,95,0.0,1.0,71,0.00,,,0.00,,VWS V14.01,2013-05-08 00:53:00,
2013-05-07 20:58:00,64.4,55.2,30.09,East,95,0.0,1.0,72,0.00,,,0.00,,VWS V14.01,2013-05-08 00:58:00,
2013-05-07 21:00:00,64.4,55.2,30.09,East,95,0.0,1.0,72,0.00,,,0.00,0.00,VWS V14.01,2013-05-08 01:00:00,
2013-05-07 21:03:00,64.2,55.4,30.09,ENE,78,1.0,7.0,73,0.00,,,0.00,,VWS V14.01,2013-05-08 01:03:00,
2013-05-07 21:08:00,64.2,55.4,30.09,ENE,78,3.0,7.0,73,0.00,,,0.00,,VWS V14.01,2013-05-08 01:08:00,
2013-05-07 21:13:00,64.1,55.3,30.09,ENE,78,5.0,7.0,73,0.00,,,0.00,,VWS V14.01,2013-05-08 01:13:00,
2013-05-07 21:15:00,64.1,55.3,30.10,ENE,78,0.0,7.0,73,0.00,,,0.00,0.00,VWS V14.01,2013-05-08 01:15:00,
2013-05-07 21:18:00,64.1,55.7,30.10,ENE,68,6.0,6.0,74,0.00,,,0.00,,VWS V14.01,2013-05-08 01:18:00,
2013-05-07 21:23:00,64.1,55.7,30.10,ESE,109,0.0,8.0,74,0.00,,,0.00,,VWS V14.01,2013-05-08 01:23:00,
2013-05-07 21:28:00,63.9,55.8,30.10,East,82,0.0,8.0,75,0.00,,,0.00,,VWS V14.01,2013-05-08 01:28:00,
2013-05-07 21:30:00,63.9,55.8,30.10,NE,51,4.0,8.0,75,0.00,,,0.00,0.00,VWS V14.01,2013-05-08 01:30:00,
2013-05-07 21:32:00,63.9,55.8,30.10,ENE,65,0.0,7.0,75,0.00,,,0.00,,VWS V14.01,2013-05-08 01:32:00,
2013-05-07 21:37:00,63.8,56.1,30.10,East,82,0.0,8.0,76,0.00,,,0.00,,VWS V14.01,2013-05-08 01:37:00,
2013-05-07 21:42:00,63.8,56.1,30.10,SSW,206,0.0,8.0,76,0.00,,,0.00,,VWS V14.01,2013-05-08 01:42:00,
2013-05-07 21:45:00,63.6,55.9,30.10,East,97,5.0,8.0,76,0.00,,,0.00,0.00,VWS V14.01,2013-05-08 01:45:00,
2013-05-07 21:47:00,63.6,55.9,30.10,ENE,57,4.0,9.0,76,0.00,,,0.00,,VWS V14.01,2013-05-08 01:47:00,
2013-05-07 21:52:00,63.6,56.3,30.10,North,355,0.0,9.0,77,0.00,,,0.00,,VWS V14.01,2013-05-08 01:52:00,
2013-05-07 21:57:00,63.4,56.1,30.10,ENE,78,6.0,9.0,77,0.00,,,0.00,,VWS V14.01,2013-05-08 01:57:00,
2013-05-07 22:00:00,63.4,56.1,30.10,SE,128,0.0,9.0,77,0.00,,,0.00,0.00,VWS V14.01,2013-05-08 02:00:00,
2013-05-07 22:02:00,63.4,56.1,30.10,ENE,77,2.0,2.0,77,0.00,,,0.00,,VWS V14.01,2013-05-08 02:02:00,
2013-05-07 22:07:00,63.3,56.0,30.10,NE,49,0.0,12.0,77,0.00,,,0.00,,VWS V14.01,2013-05-08 02:07:00,
2013-05-07 22:12:00,63.3,56.0,30.10,ESE,107,5.0,12.0,77,0.00,,,0.00,,VWS V14.01,2013-05-08 02:12:00,
2013-05-07 22:15:00,63.1,55.8,30.11,East,85,5.0,12.0,77,0.00,,,0.00,0.00,VWS V14.01,2013-05-08 02:15:00,
2013-05-07 22:17:00,63.1,55.8,30.11,SE,131,6.0,10.0,77,0.00,,,0.00,,VWS V14.01,2013-05-08 02:17:00,
2013-05-07 22:22:00,63.1,55.8,30.11,SSE,150,1.0,10.0,77,0.00,,,0.00,,VWS V14.01,2013-05-08 02:22:00,
2013-05-07 22:27:00,63.0,55.7,30.11,East,84,0.0,10.0,77,0.00,,,0.00,,VWS V14.01,2013-05-08 02:27:00,
2013-05-07 22:30:00,63.0,55.7,30.11,ENE,58,0.0,10.0,77,0.00,,,0.00,0.00,VWS V14.01,2013-05-08 02:30:00,
2013-05-07 22:32:00,63.0,56.0,30.11,ENE,58,0.0,1.0,78,0.00,,,0.00,,VWS V14.01,2013-05-08 02:32:00,
2013-05-07 22:37:00,63.0,56.0,30.11,East,81,4.0,7.0,78,0.00,,,0.00,,VWS V14.01,2013-05-08 02:37:00,
2013-05-07 22:42:00,62.8,55.8,30.11,ENE,63,0.0,7.0,78,0.00,,,0.00,,VWS V14.01,2013-05-08 02:42:00,
2013-05-07 22:45:00,62.8,55.8,30.11,NE,50,6.0,8.0,78,0.00,,,0.00,0.00,VWS V14.01,2013-05-08 02:45:00,
2013-05-07 22:47:00,62.8,56.2,30.11,East,87,0.0,7.0,79,0.00,,,0.00,,VWS V14.01,2013-05-08 02:47:00,
2013-05-07 22:52:00,62.6,56.0,30.11,ENE,71,2.0,7.0,79,0.00,,,0.00,,VWS V14.01,2013-05-08 02:52:00,
2013-05-07 22:57:00,62.6,56.0,30.11,NE,53,2.0,8.0,79,0.00,,,0.00,,VWS V14.01,2013-05-08 02:57:00,
2013-05-07 23:00:00,62.6,56.0,30.10,NE,40,0.0,8.0,79,0.00,,,0.00,0.00,VWS V14.01,2013-05-08 03:00:00,
2013-05-07 23:02:00,62.6,56.0,30.10,ENE,69,0.0,7.0,79,0.00,,,0.00,,VWS V14.01,2013-05-08 03:02:00,
2013-05-07 23:07:00,62.5,55.9,30.10,ENE,69,0.0,7.0,79,0.00,,,0.00,,VWS V14.01,2013-05-08 03:07:00,
2013-05-07 23:12:00,62.5,55.9,30.10,ENE,60,0.0,7.0,79,0.00,,,0.00,,VWS V14.01,2013-05-08 03:12:00,
2013-05-07 23:15:00,62.5,55.9,30.10,ENE,60,0.0,7.0,79,0.00,,,0.00,0.00,VWS V14.01,2013-05-08 03:15:00,
2013-05-07 23:17:00,62.5,55.9,30.10,ENE,60,0.0,1.0,79,0.00,,,0.00,,VWS V14.01,2013-05-08 03:17:00,
2013-05-07 23:22:00,62.3,55.7,30.10,ENE,61,4.0,7.0,79,0.00,,,0.00,,VWS V14.01,2013-05-08 03:22:00,
2013-05-07 23:27:00,62.3,55.7,30.10,NE,47,0.0,7.0,79,0.00,,,0.00,,VWS V14.01,2013-05-08 03:27:00,
2013-05-07 23:30:00,62.3,55.7,30.09,NE,47,0.0,7.0,79,0.00,,,0.00,0.00,VWS V14.01,2013-05-08 03:30:00,
2013-05-07 23:32:00,62.2,56.0,30.09,NE,47,4.0,6.0,80,0.00,,,0.00,,VWS V14.01,2013-05-08 03:32:00,
2013-05-07 23:37:00,62.2,55.6,30.09,NE,52,0.0,6.0,79,0.00,,,0.00,,VWS V14.01,2013-05-08 03:37:00,
2013-05-07 23:42:00,62.2,55.6,30.09,NE,52,0.0,6.0,79,0.00,,,0.00,,VWS V14.01,2013-05-08 03:42:00,
2013-05-07 23:45:00,62.2,55.6,30.09,NE,52,0.0,6.0,79,0.00,,,0.00,0.00,VWS V14.01,2013-05-08 03:45:00,
2013-05-07 23:47:00,62.2,55.6,30.09,NE,52,0.0,1.0,79,0.00,,,0.00,,VWS V14.01,2013-05-08 03:47:00,
2013-05-07 23:52:00,62.0,55.8,30.09,NE,51,5.0,5.0,80,0.00,,,0.00,,VWS V14.01,2013-05-08 03:52:00,
2013-05-07 23:57:00,62.0,55.8,30.09,ESE,115,0.0,6.0,80,0.00,,,0.00,,VWS V14.01,2013-05-08 03:57:00,